Date String (YYYY-MM-DD hh:mm:ss) UTC,Instrument flags,Ambient pressure (hPa),Sample flow (lpm),Bypass flow (lpm),Sample temperature (°C),Ambient temperature (°C),ASC tube jacket temperature (°C),LED temperature (°C),Box temperature (°C),Sample RH (%),Span deviation,Mass concentration (μg/m³),Mass concentration (μg/m³),Mass concentration (μg/m³)
DateTimeUTC,F1_M11,P_M11,Q1_M11,Q2_M11,T1_M11,T2_M11,T3_M11,T4_M11,T5_M11,U1_M11,ZSPAN_M11,X0_M11,X2_M11,X1_M11
2022-11-03 15:00:00,,0821.2,5.00,0.00,25.4,23.9,00.0,34.2,27.3,13.3,0000.0,0016.29,0004.10,0002.68
2022-11-03 15:01:00,,0821.2,4.99,0.00,25.4,23.9,00.0,34.2,27.3,13.4,0000.0,0015.55,0004.05,0002.67
2022-11-03 15:02:00,,0821.1,5.01,0.00,25.4,23.9,00.0,34.2,27.3,13.3,0000.0,0016.00,0004.03,0002.66
2022-11-03 15:03:00,,0821.1,5.02,0.00,25.4,23.9,00.0,34.2,27.3,13.4,0000.0,0015.61,0003.99,0002.65
2022-11-03 15:04:00,,0821.1,4.99,0.00,25.4,23.8,00.0,34.2,27.3,13.4,0000.0,0015.59,0003.95,0002.64
2022-11-03 15:05:00,,0821.2,4.98,0.00,25.3,23.8,00.0,34.2,27.2,13.4,0000.0,0014.48,0003.90,0002.62
2022-11-03 15:06:00,,0821.2,5.01,0.00,25.3,23.8,00.0,34.2,27.2,13.4,0000.0,0014.08,0003.84,0002.60
2022-11-03 15:07:00,,0821.3,5.00,0.00,25.3,23.8,00.0,34.2,27.2,13.4,0000.0,0014.32,0003.81,0002.58
2022-11-03 15:08:00,,0821.3,5.00,0.00,25.3,23.8,00.0,34.1,27.2,13.4,0000.0,0013.78,0003.81,0002.57
2022-11-03 15:09:00,,0821.3,5.00,0.00,25.3,23.7,00.0,34.1,27.2,13.3,0000.0,0012.86,0003.75,0002.58
2022-11-03 15:10:00,,0821.3,4.99,0.00,25.3,23.7,00.0,34.2,27.2,13.3,0000.0,0012.12,0003.79,0002.58
2022-11-03 15:11:00,,0821.3,4.99,0.00,25.3,23.7,00.0,34.1,27.2,13.3,0000.0,0011.95,0003.79,0002.59
2022-11-03 15:12:00,,0821.4,5.00,0.00,25.3,23.6,00.0,34.1,27.1,13.3,0000.0,0011.95,0003.76,0002.60
2022-11-03 15:13:00,,0821.4,5.00,0.00,25.2,23.6,00.0,34.1,27.1,13.3,0000.0,0011.92,0003.78,0002.62
2022-11-03 15:14:00,,0821.5,5.00,0.00,25.2,23.6,00.0,34.1,27.1,13.4,0000.0,0012.28,0003.78,0002.62
2022-11-03 15:15:00,,0821.6,5.00,0.00,25.2,23.6,00.0,34.1,27.1,13.3,0000.0,0011.86,0003.77,0002.62
2022-11-03 15:16:00,,0821.7,5.01,0.00,25.2,23.5,00.0,34.1,27.1,13.4,0000.0,0012.18,0003.79,0002.63
2022-11-03 15:17:00,,0821.7,5.00,0.00,25.2,23.5,00.0,34.1,27.0,13.4,0000.0,0011.78,0003.79,0002.63
2022-11-03 15:18:00,,0821.8,5.00,0.00,25.2,23.6,00.0,34.1,27.0,13.3,0000.0,0011.63,0003.85,0002.64
2022-11-03 15:19:00,,0821.8,4.99,0.00,25.2,23.5,00.0,34.0,27.1,13.3,0000.0,0011.34,0003.84,0002.67
2022-11-03 15:20:00,,0821.9,5.01,0.00,25.2,23.6,00.0,34.0,27.1,13.3,0000.0,0011.64,0003.88,0002.68
2022-11-03 15:21:00,,0821.8,4.99,0.00,25.2,23.6,00.0,34.0,27.0,13.3,0000.0,0011.64,0003.83,0002.69
2022-11-03 15:22:00,,0821.8,5.00,0.00,25.2,23.6,00.0,34.0,27.0,13.3,0000.0,0011.64,0003.84,0002.73
2022-11-03 15:23:00,,0821.8,5.00,0.00,25.1,23.6,00.0,34.0,27.1,13.2,0000.0,0011.24,0003.85,0002.74
2022-11-03 15:24:00,,0821.8,5.00,0.00,25.1,23.6,00.0,34.0,27.0,13.3,0000.0,0011.77,0003.88,0002.77
2022-11-03 15:25:00,,0821.8,5.01,0.00,25.1,23.6,00.0,34.0,27.0,13.3,0000.0,0011.18,0003.85,0002.79
2022-11-03 15:26:00,,0821.8,5.00,0.00,25.1,23.6,00.0,34.0,27.0,13.3,0000.0,0010.84,0003.85,0002.82
2022-11-03 15:27:00,,0821.9,4.99,0.00,25.1,23.6,00.0,34.0,27.0,13.3,0000.0,0010.52,0003.85,0002.86
2022-11-03 15:28:00,,0821.9,5.00,0.00,25.1,23.6,00.0,34.0,27.0,13.3,0000.0,0012.31,0003.87,0002.90
2022-11-03 15:29:00,,0822.2,5.01,0.00,25.1,23.6,00.0,34.0,27.0,13.3,0000.0,0013.39,0003.90,0002.93
2022-11-03 15:30:00,,0821.9,5.00,0.00,25.1,23.6,00.0,34.0,27.0,13.3,0000.0,0014.16,0003.96,0002.93
2022-11-03 15:31:00,,0822.0,5.00,0.00,25.1,23.6,00.0,34.0,27.0,13.3,0000.0,0014.53,0003.93,0002.92
2022-11-03 15:32:00,,0822.0,5.01,0.00,25.1,23.5,00.0,34.0,27.0,13.2,0000.0,0014.38,0003.94,0002.92
2022-11-03 15:33:00,,0821.8,4.98,0.00,25.1,23.5,00.0,34.0,27.0,13.2,0000.0,0014.52,0003.91,0002.91
2022-11-03 15:34:00,,0821.7,5.01,0.00,25.1,23.5,00.0,33.9,27.0,13.2,0000.0,0015.18,0003.89,0002.91
2022-11-03 15:35:00,,0821.7,5.01,0.00,25.1,23.5,00.0,33.9,26.9,13.2,0000.0,0014.18,0003.82,0002.91
2022-11-03 15:36:00,,0821.8,4.98,0.00,25.1,23.5,00.0,33.9,26.9,13.2,0000.0,0014.19,0003.76,0002.89
2022-11-03 15:37:00,,0821.8,5.00,0.00,25.1,23.5,00.0,33.9,27.0,13.2,0000.0,0014.79,0003.76,0002.89
2022-11-03 15:38:00,,0821.7,5.00,0.00,25.1,23.5,00.0,33.9,27.0,13.2,0000.0,0015.19,0003.74,0002.87
2022-11-03 15:39:00,,0821.6,5.00,0.00,25.1,23.6,00.0,33.9,27.0,13.2,0000.0,0013.33,0003.71,0002.86
2022-11-03 15:40:00,,0821.5,5.00,0.00,25.1,23.5,00.0,33.9,26.9,13.2,0000.0,0012.61,0003.63,0002.87
2022-11-03 15:41:00,,0821.4,5.00,0.00,25.0,23.5,00.0,33.9,26.9,13.2,0000.0,0011.84,0003.57,0002.89
2022-11-03 15:42:00,,0821.4,5.00,0.00,25.0,23.5,00.0,33.9,26.9,13.2,0000.0,0011.64,0003.54,0002.89
2022-11-03 15:43:00,,0821.4,5.00,0.00,25.0,23.5,00.0,33.9,26.9,13.2,0000.0,0012.20,0003.57,0002.89
2022-11-03 15:44:00,,0821.4,5.00,0.00,25.0,23.5,00.0,33.9,26.9,13.3,0000.0,0011.93,0003.61,0002.89
2022-11-03 15:45:00,,0821.4,5.00,0.00,25.0,23.5,00.0,33.9,26.9,13.2,0000.0,0011.55,0003.64,0002.89
2022-11-03 15:46:00,,0821.4,4.99,0.00,25.0,23.5,00.0,33.9,26.9,13.2,0000.0,0011.84,0003.68,0002.90
2022-11-03 15:47:00,,0821.4,5.00,0.00,25.0,23.5,00.0,33.9,26.9,13.2,0000.0,0011.31,0003.70,0002.92
2022-11-03 15:48:00,,0821.3,5.00,0.00,25.0,23.5,00.0,33.9,26.9,13.2,0000.0,0011.53,0003.71,0002.91
2022-11-03 15:49:00,,0821.2,5.00,0.00,25.0,23.5,00.0,33.9,26.9,13.2,0000.0,0012.03,0003.72,0002.92
2022-11-03 15:50:00,,0821.2,5.01,0.00,25.0,23.5,00.0,33.9,26.9,13.2,0000.0,0012.06,0003.76,0002.92
2022-11-03 15:51:00,,0821.2,5.00,0.00,25.0,23.5,00.0,33.9,26.9,13.2,0000.0,0011.87,0003.77,0002.90
2022-11-03 15:52:00,,0821.3,5.01,0.00,25.0,23.5,00.0,33.8,26.9,13.2,0000.0,0012.28,0003.79,0002.86
2022-11-03 15:53:00,,0821.4,5.00,0.00,25.0,23.5,00.0,33.8,26.9,13.2,0000.0,0013.04,0003.80,0002.83
2022-11-03 15:54:00,,0821.4,5.00,0.00,25.0,23.5,00.0,33.8,26.9,13.2,0000.0,0012.35,0003.80,0002.83
2022-11-03 15:55:00,,0821.4,4.99,0.00,25.0,23.5,00.0,33.8,26.9,13.2,0000.0,0012.29,0003.77,0002.81
2022-11-03 15:56:00,,0821.4,5.01,0.00,25.0,23.5,00.0,33.8,26.9,13.2,0000.0,0012.10,0003.77,0002.81
2022-11-03 15:57:00,,0821.4,5.00,0.00,25.0,23.5,00.0,33.8,26.9,13.2,0000.0,0012.29,0003.77,0002.80
2022-11-03 15:58:00,,0821.4,4.99,0.00,25.0,23.5,00.0,33.8,26.9,13.2,0000.0,0012.45,0003.79,0002.79
2022-11-03 15:59:00,,0821.4,5.01,0.00,25.0,23.6,00.0,33.8,26.9,13.2,0000.0,0012.02,0003.81,0002.76
